Theta_e
312 314 315 314 313 312 310 309 309 308 307 306 304 302 301 300 300 298 298 296 296 296
313 314 313 312 312 310 310 308 307 306 304 304 302 302 301 300 297 297 296 295 295 294
313 313 314 312 311 310 309 308 306 303 302 301 301 301 300 297 294 296 294 294 292 293
307 310 311 310 310 308 304 304 304 302 296 296 295 296 299 298 296 297 296 296 295 293
294 296 300 306 303 303 302 302 299 299 298 296 298 298 299 296 296 295 293 293 293 293
289 289 290 290 292 299 301 300 300 299 298 297 296 296 297 296 294 295 294 292 291 290
286 287 287 287 288 289 292 294 296 298 297 298 295 292 292 292 291 291 291 291 292 291
283 285 287 287 287 287 287 288 289 290 289 291 292 290 289 289 291 291 290 289 290 291
281 282 283 284 285 286 286 286 287 287 287 290 287 293 294 291 289 289 290 289 289 290
279 279 280 282 283 283 284 286 286 286 286 286 286 293 293 291 288 288 288 289 289 287
276 277 278 279 280 281 283 283 284 284 285 286 288 293 293 290 288 288 288 289 289 288
273 274 275 275 276 278 280 281 282 282 283 284 285 290 292 288 286 286 286 287 288 288
272 272 272 273 273 276 278 278 281 281 281 282 283 287 289 287 286 285 285 285 286 286
271 271 271 272 273 273 274 275 276 278 279 280 281 284 288 289 285 285 285 285 284 285
Wind_Speed
15 11 10 13 10 10 11 12 13 12 13 14 10 12 10 9 10 9 7 11 6 2
12 13 13 12 14 12 11 11 12 13 13 14 17 12 13 9 6 6 5 4 4 2
13 12 14 13 13 12 12 15 16 14 11 12 14 16 15 10 5 6 4 4 5 3
9 11 13 12 10 11 9 12 15 15 18 11 10 14 11 14 13 13 10 7 6 4
13 8 8 11 11 12 11 10 12 12 13 15 13 13 15 14 14 15 13 11 10 10
17 12 9 9 6 8 11 10 9 12 12 12 13 13 11 12 12 12 13 12 12 12
15 14 12 10 11 10 5 9 8 8 9 11 11 7 7 15 12 10 9 11 13 12
14 12 14 14 13 13 10 7 6 7 6 5 7 6 9 5 10 13 11 10 10 10
13 15 14 15 13 14 11 10 9 7 5 5 4 9 11 7 7 9 10 10 8 8
15 16 15 13 13 13 11 11 11 9 7 5 3 10 12 12 5 6 6 7 8 7
14 13 12 14 13 11 9 10 8 9 7 7 6 3 8 10 5 4 6 7 8 8
12 14 14 14 12 10 10 9 9 7 8 7 6 11 6 6 3 4 4 4 5 8
11 11 12 10 10 7 7 7 6 8 8 8 7 12 11 4 3 4 3 3 4 7
10 11 9 9 7 7 7 8 8 9 8 9 8 9 6 4 2 3 3 3 2 2
Wind_Direction
201 191 175 176 164 163 162 149 151 151 164 146 145 155 171 178 185 175 170 172 166 160
175 177 162 166 164 155 154 135 148 151 148 142 137 146 156 172 155 134 112 134 156 146
157 170 164 158 163 155 161 157 155 143 142 151 155 154 161 146 144 129 111 101 147 214
122 153 152 150 150 148 131 147 152 161 133 143 155 147 172 168 163 171 173 170 178 211
82 73 132 131 132 136 138 136 131 142 157 152 169 170 177 167 174 167 167 177 183 199
80 68 72 81 85 124 133 132 151 150 158 167 162 172 174 164 165 170 178 176 181 189
70 70 66 67 68 60 80 125 137 151 162 167 162 168 190 160 160 171 175 177 185 168
57 66 66 60 63 64 53 54 83 101 106 129 151 158 154 163 175 168 175 173 178 186
66 61 58 57 56 61 55 52 61 60 87 138 108 156 168 157 172 160 171 175 181 168
49 54 50 55 56 58 53 57 54 51 58 71 43 169 163 158 157 154 152 158 162 162
47 54 53 54 51 50 51 50 56 51 43 57 44 92 171 161 146 154 161 159 169 167
35 47 44 44 39 37 52 51 54 48 47 47 42 39 93 112 121 113 133 142 164 169
36 50 54 45 39 31 51 54 55 57 44 41 38 24 36 103 95 103 126 138 149 160
32 42 38 51 46 43 51 54 45 54 38 34 25 9 11 57 108 142 145 133 149 156